Location: Sternwarte_Laufen
(47.9344°N, 12.9346°E)
Time: 00:41:08
(UTC+02:00)

ISS - Pass Details

Date: 22 May 2017
Orbit: 402 x 408 km, 51.6° (Epoch: 27 May)

Event Time Altitude Azimuth Distance (km) Brightness Sun altitude
Exits shadow 23:42:34 20° 75° (ENE) 995 -1.9 -19.1°
Drops below altitude 10° 23:43:46 10° 70° (ENE) 1,469 -1.0 -19.1°
Sets 23:45:52 0° 68° (ENE) 2,331 0.1 -19.2°
